Satellite: MET-3/5 Catalog number: 21655 Epoch time: 07066.98094200 Element set: 0244 Inclination: 082.5481 deg RA of node: 074.4441 deg Eccentricity: 0.0014385 Arg of perigee: 099.0932 deg Mean anomaly: 261.1820 deg Mean motion: 13.17010205 rev/day Decay rate: 5.1e-07 rev/day^2 Epoch rev: 74808 Checksum: 277
Satellite: MET-2/21 Catalog number: 22782 Epoch time: 07067.56187398 Element set: 767 Inclination: 082.5467 deg RA of node: 121.7542 deg Eccentricity: 0.0023095 Arg of perigee: 154.7443 deg Mean anomaly: 205.4844 deg Mean motion: 13.83615806 rev/day Decay rate: 1.39e-06 rev/day^2 Epoch rev: 68260 Checksum: 327
Satellite: OKEAN-4 Catalog number: 23317 Epoch time: 07067.47683318 Element set: 205 Inclination: 082.5394 deg RA of node: 030.4814 deg Eccentricity: 0.0020908 Arg of perigee: 221.5079 deg Mean anomaly: 138.4578 deg Mean motion: 14.82475461 rev/day Decay rate: 3.55e-06 rev/day^2 Epoch rev: 66913 Checksum: 309
Satellite: NOAA-14 Catalog number: 23455 Epoch time: 07066.87123128 Element set: 0555 Inclination: 099.0009 deg RA of node: 132.4705 deg Eccentricity: 0.0009449 Arg of perigee: 031.3675 deg Mean anomaly: 328.8068 deg Mean motion: 14.13704591 rev/day Decay rate: 3.17e-06 rev/day^2 Epoch rev: 62832 Checksum: 302
Satellite: SICH-1 Catalog number: 23657 Epoch time: 07067.51593419 Element set: 7 Inclination: 082.5312 deg RA of node: 171.3738 deg Eccentricity: 0.0023216 Arg of perigee: 210.8082 deg Mean anomaly: 149.1764 deg Mean motion: 14.81458408 rev/day Decay rate: 2.04e-06 rev/day^2 Epoch rev: 62112 Checksum: 277
Satellite: NOAA-15 Catalog number: 25338 Epoch time: 07067.10611002 Element set: 911 Inclination: 098.5291 deg RA of node: 066.6489 deg Eccentricity: 0.0010058 Arg of perigee: 328.4346 deg Mean anomaly: 031.6259 deg Mean motion: 14.24629914 rev/day Decay rate: 1.44e-06 rev/day^2 Epoch rev: 45829 Checksum: 301
Satellite: RESURS Catalog number: 25394 Epoch time: 07067.73926296 Element set: 589 Inclination: 098.4564 deg RA of node: 126.1889 deg Eccentricity: 0.0002168 Arg of perigee: 103.7511 deg Mean anomaly: 256.3909 deg Mean motion: 14.24129288 rev/day Decay rate: 9.0e-08 rev/day^2 Epoch rev: 45005 Checksum: 324
Satellite: FENGYUN1 Catalog number: 25730 Epoch time: 07067.90119853 Element set: 1 Inclination: 098.6849 deg RA of node: 055.5945 deg Eccentricity: 0.0022542 Arg of perigee: 049.1912 deg Mean anomaly: 311.1216 deg Mean motion: 14.07433870 rev/day Decay rate: 2.98e-06 rev/day^2 Epoch rev: 40335 Checksum: 288
Satellite: OKEAN-0 Catalog number: 25860 Epoch time: 07066.57167294 Element set: 0997 Inclination: 097.7315 deg RA of node: 073.5680 deg Eccentricity: 0.0001386 Arg of perigee: 041.4586 deg Mean anomaly: 318.6724 deg Mean motion: 14.73434907 rev/day Decay rate: 7.1e-07 rev/day^2 Epoch rev: 41053 Checksum: 318
Satellite: NOAA-16 Catalog number: 26536 Epoch time: 07067.10176089 Element set: 324 Inclination: 099.1069 deg RA of node: 042.3359 deg Eccentricity: 0.0011218 Arg of perigee: 097.6110 deg Mean anomaly: 262.6306 deg Mean motion: 14.12410440 rev/day Decay rate: 6.8e-07 rev/day^2 Epoch rev: 33283 Checksum: 277
Satellite: NOAA-17 Catalog number: 27453 Epoch time: 07066.90707677 Element set: 0337 Inclination: 098.5891 deg RA of node: 138.6009 deg Eccentricity: 0.0011924 Arg of perigee: 033.2262 deg Mean anomaly: 326.9661 deg Mean motion: 14.23858725 rev/day Decay rate: -2.7e-07 rev/day^2 Epoch rev: 24430 Checksum: 318
Satellite: NOAA-18 Catalog number: 28654 Epoch time: 07066.85439834 Element set: 0874 Inclination: 098.8205 deg RA of node: 009.8870 deg Eccentricity: 0.0013964 Arg of perigee: 192.3555 deg Mean anomaly: 167.7273 deg Mean motion: 14.11041507 rev/day Decay rate: -1.51e-06 rev/day^2 Epoch rev: 09256 Checksum: 330
/EX SB KEPS @ AMSAT $ORB07067.M Orbital Elements 07067.MISC
HR AMSAT ORBITAL ELEMENTS FOR MANNED AND MISCELLANEOUS SATELLITES FROM WA5QGD FORT WORTH,TX March 8, 2007 Send SUBSCRIBE KEPS/UNSUBSCRIBE KEPS to [email protected] only BID: ORB07067.M TO ALL RADIO AMATEURS BT
Satellite: HUBBLE Catalog number: 20580 Epoch time: 07066.95546546 Element set: 0844 Inclination: 028.4650 deg RA of node: 130.2034 deg Eccentricity: 0.0003794 Arg of perigee: 103.7107 deg Mean anomaly: 256.3897 deg Mean motion: 15.00201926 rev/day Decay rate: 4.88e-06 rev/day^2 Epoch rev: 72474 Checksum: 293
Satellite: UARS Catalog number: 21701 Epoch time: 07066.93729612 Element set: 0015 Inclination: 056.9754 deg RA of node: 032.9828 deg Eccentricity: 0.0095109 Arg of perigee: 000.5341 deg Mean anomaly: 359.5807 deg Mean motion: 15.46981783 rev/day Decay rate: 8.460e-05 rev/day^2 Epoch rev: 85007 Checksum: 315
Satellite: PO-34 Catalog number: 25520 Epoch time: 07066.39932035 Element set: 0697 Inclination: 028.4597 deg RA of node: 069.9714 deg Eccentricity: 0.0005689 Arg of perigee: 223.5990 deg Mean anomaly: 136.4157 deg Mean motion: 15.16940211 rev/day Decay rate: 5.97e-06 rev/day^2 Epoch rev: 46205 Checksum: 330
Satellite: ISS Catalog number: 25544 Epoch time: 07067.96717499 Element set: 779 Inclination: 051.6338 deg RA of node: 261.8502 deg Eccentricity: 0.0020419 Arg of perigee: 294.2550 deg Mean anomaly: 216.7009 deg Mean motion: 15.79105182 rev/day Decay rate: 2.2832e-04 rev/day^2 Epoch rev: 47494 Checksum: 324
Satellite: OO-38 Catalog number: 26063 Epoch time: 07067.47427913 Element set: 857 Inclination: 100.2221 deg RA of node: 051.5104 deg Eccentricity: 0.0037280 Arg of perigee: 083.1845 deg Mean anomaly: 277.3579 deg Mean motion: 14.35797901 rev/day Decay rate: -1.3e-07 rev/day^2 Epoch rev: 37259 Checksum: 306
Satellite: NO-45 Catalog number: 26932 Epoch time: 07066.91736148 Element set: 0544 Inclination: 067.0514 deg RA of node: 048.1034 deg Eccentricity: 0.0004872 Arg of perigee: 288.4165 deg Mean anomaly: 071.6409 deg Mean motion: 14.29550865 rev/day Decay rate: -2.6e-07 rev/day^2 Epoch rev: 28366 Checksum: 317
Satellite: UWE-1 Catalog number: 28892 Epoch time: 07067.63760588 Element set: 694 Inclination: 098.1419 deg RA of node: 326.2230 deg Eccentricity: 0.0018404 Arg of perigee: 066.9645 deg Mean anomaly: 293.3515 deg Mean motion: 14.59472563 rev/day Decay rate: 1.84e-06 rev/day^2 Epoch rev: 7254 Checksum: 330
Satellite: CO-58 Catalog number: 28895 Epoch time: 07066.17994431 Element set: 0675 Inclination: 098.1450 deg RA of node: 324.9653 deg Eccentricity: 0.0018845 Arg of perigee: 072.3365 deg Mean anomaly: 287.9901 deg Mean motion: 14.59521136 rev/day Decay rate: 8.3e-07 rev/day^2 Epoch rev: 07221 Checksum: 338
Satellite: NCUBE2 Catalog number: 28897 Epoch time: 07066.67730821 Element set: 0196 Inclination: 098.1425 deg RA of node: 325.4199 deg Eccentricity: 0.0018261 Arg of perigee: 070.8711 deg Mean anomaly: 289.4471 deg Mean motion: 14.59681697 rev/day Decay rate: 1.42e-06 rev/day^2 Epoch rev: 06456 Checksum: 337
Satellite: NMARS Catalog number: 29662 Epoch time: 07067.59840374 Element set: 105 Inclination: 051.6333 deg RA of node: 258.1353 deg Eccentricity: 0.0010252 Arg of perigee: 298.7716 deg Mean anomaly: 061.2265 deg Mean motion: 15.93054128 rev/day Decay rate: 1.32423e-03 rev/day^2 Epoch rev: 1221 Checksum: 276
Satellite: FCAL Catalog number: 29667 Epoch time: 07067.85081515 Element set: 75 Inclination: 051.6322 deg RA of node: 259.0655 deg Eccentricity: 0.0015355 Arg of perigee: 314.1503 deg Mean anomaly: 045.8237 deg Mean motion: 15.84463157 rev/day Decay rate: 1.9674e-04 rev/day^2 Epoch rev: 1207 Checksum: 299
/EX
participants (1)
-
Ray Hoad